sat.trackr.live / text

‹ back to catalog

STARLINK-37135

NORAD 68602 · 2026-073A

PAYLOAD ACTIVE UNKNOWN

§ Identity

Operator
Country
US
Launch date
2026-04-07
Launch site
AFWTR
Launch vehicle
Mass (kg)
RCS (m²)

Purposes: comms

External: N2YO · Heavens-Above · Gunter

§ Orbital elements

Epoch: 2026-09-20T00:07:49.933920Z

Period
93.91 min
Inclination
97.2846°
Eccentricity
0.0000895
Mean motion
15.33444558 rev/d
Perigee alt
464.9 km
Apogee alt
466.2 km
Semi-major
6,843.7 km
B*
2.3238e-4
RAAN
101.0068°
Arg perigee
93.1010°
Mean anomaly
267.0335°
Rev number
2,566

§ Raw data

STARLINK-371351 68602U 26073A   26263.00543905  .00007434  00000+0  23238-3 0  99932 68602  97.2846 101.0068 0000895  93.1010 267.0335 15.33444558 25669

JSON: /api/v1/satellites/68602 · /tle

For live sub-satellite position, see the globe view (requires WebGL).

§ Visibility from observer

Set your observer location to see the next 7 days of passes ≥ 10°. The values pass through the URL so the page stays shareable.

No JS? Fill the form by hand. The geolocation button needs JavaScript.